Location: Arbon
(43.0005°N, 0.7472°E)
Time: 19:04:42
(UTC+00:00)

Okean 1 Rocket - Pass Details

Date: 07 August 2020
Orbit: 607 x 634 km, 82.5° (Epoch: 24 September)

Event Time Altitude Azimuth Distance (km) Brightness Sun altitude
Exits shadow 02:38:11 28° 287° (WNW) 1,150 4.2 -20.8°
Drops below altitude 10° 02:41:55 10° 346° (NNW) 1,973 6.1 -20.4°
Sets 02:44:25 0° 358° (N) 2,885 7.2 -20.1°
